Flag for Canada Weather past 2 weeks in Campbell River, British Columbia, Canada

Now
63 °F

Clear.


Feels Like: 63 °F
Forecast: 61 / 84 °F
Wind: 13 mph from Northwest

Location: Comox

Current Time: Jul 4, 2015 at 5:03:25 AM

Latest Report: Jul 4, 2015 at 4:00 AM


Visibility: 20 mi

Pressure: 29.89 "Hg

Humidity: 56%

Dew point: 46 °F

Location of Campbell RiverLocation

Historic Weather in Campbell River — Graph

°F

Campbell River temperature yesterday

Maximum temperature yesterday: 79 °F (at 4:00 PM)
Minimum temperature yesterday: 61 °F (at 4:00 AM)
Average temperature yesterday: 69 °F

Past Weeks' High & Low Weather Summary

 TemperatureHumidityPressure
High88 °F (Jun 27, 6:00 PM)94% (Jun 19, 5:00 AM)30.17 "Hg (Jun 19, 5:00 AM)
Low54 °F (Jun 19, 5:00 AM)25% (Jun 21, 6:00 PM)29.87 "Hg (Jul 3, 7:00 PM)
Average68 °F60%30.03 "Hg
* Reported Jun 19 4:00 AM — Jul 4 4:00 AM, Campbell River, Weather by CustomWeather, © 2015

Note: Actual official high and low records may vary slightly from our data, if they occured in-between our weather recording intervals... More about our weather records

Advertising

Campbell River weather history for previous 24 hours

 ConditionsComfort  
Time TempWeatherWind HumidityBarometerVisibility
4:00 AM
Sat, Jul 4
63 °FClear.13 mph56%29.89 "Hg20 mi
3:00 AM63 °FClear.18 mph52%29.89 "Hg20 mi
2:00 AM63 °FClear.20 mph56%29.88 "Hg20 mi
1:00 AM63 °FClear.15 mph56%29.89 "Hg20 mi
12:00 AM64 °FClear.24 mph52%29.88 "Hg20 mi
11:00 PM
Fri, Jul 3
66 °FClear.15 mph49%29.89 "Hg20 mi
10:00 PM68 °FSunny.17 mph46%29.88 "Hg20 mi
9:00 PM70 °FSunny.17 mph43%29.87 "Hg20 mi
8:00 PM73 °FSunny.20 mph38%29.87 "Hg20 mi
7:00 PM75 °FSunny.18 mph39%29.87 "Hg20 mi
6:00 PM77 °FSunny.16 mph36%29.88 "Hg20 mi
5:00 PM79 °FSunny.17 mph34%29.90 "Hg20 mi
4:00 PM79 °FPassing clouds.13 mph37%29.91 "Hg20 mi
3:00 PM77 °FPassing clouds.20 mph39%29.92 "Hg20 mi
2:00 PM77 °FPassing clouds.18 mph39%29.94 "Hg20 mi
1:00 PM75 °FPassing clouds.14 mph41%29.96 "Hg20 mi
12:00 PM73 °FPassing clouds.15 mph47%29.97 "Hg20 mi
11:00 AM70 °FPassing clouds.14 mph53%29.98 "Hg20 mi
10:00 AM68 °FScattered clouds.13 mph56%29.98 "Hg20 mi
9:00 AM64 °FPassing clouds.15 mph60%29.99 "Hg20 mi
8:00 AM64 °FPassing clouds.13 mph60%29.99 "Hg20 mi
7:00 AM63 °FPassing clouds.2 mph68%29.99 "Hg20 mi
6:00 AM61 °FPassing clouds.8 mph77%29.98 "Hg20 mi
5:00 AM61 °FPassing clouds.9 mph77%29.98 "Hg20 mi
Weather by CustomWeather, © 2015

See weather overviewHow to use our weather pages